TimeEDT,TemperatureF,Dew PointF,Humidity,Sea Level PressureIn,VisibilityMPH,Wind Direction,Wind SpeedMPH,Gust SpeedMPH,PrecipitationIn,Events,Conditions,WindDirDegrees,DateUTC
12:53 AM,79.0,71.1,77,30.06,10.0,ESE,10.4,-,N/A,,Clear,110,2013-05-20 04:53:00
1:53 AM,79.0,72.0,79,30.05,10.0,ESE,8.1,-,N/A,,Partly Cloudy,110,2013-05-20 05:53:00
2:53 AM,79.0,72.0,79,30.03,10.0,SE,11.5,-,N/A,,Partly Cloudy,130,2013-05-20 06:53:00
4:53 AM,79.0,71.1,77,30.01,10.0,SE,10.4,-,N/A,,Clear,130,2013-05-20 08:53:00
5:53 AM,78.1,72.0,81,30.01,10.0,SE,12.7,-,N/A,,Clear,130,2013-05-20 09:53:00
6:53 AM,79.0,73.0,82,30.03,10.0,ESE,10.4,-,N/A,,Scattered Clouds,120,2013-05-20 10:53:00
7:53 AM,79.0,73.0,82,30.05,10.0,SE,10.4,-,0.00,,Clear,130,2013-05-20 11:53:00
8:53 AM,81.0,73.9,79,30.06,10.0,SE,10.4,17.3,N/A,,Scattered Clouds,140,2013-05-20 12:53:00
9:53 AM,81.0,73.0,77,30.06,10.0,SE,11.5,-,N/A,,Scattered Clouds,140,2013-05-20 13:53:00
10:01 AM,80.6,73.4,79,30.06,7.0,SE,16.1,24.2,0.01,Rain,Light Rain,130,2013-05-20 14:01:00
10:06 AM,78.8,75.2,89,30.07,2.5,SE,10.4,24.2,0.07,Rain,Heavy Rain,140,2013-05-20 14:06:00
10:21 AM,78.8,75.2,89,30.06,8.0,SSE,10.4,-,0.09,Rain,Light Rain,150,2013-05-20 14:21:00
10:53 AM,81.0,75.0,82,30.07,10.0,SE,15.0,-,0.09,,Scattered Clouds,130,2013-05-20 14:53:00
11:25 AM,78.8,73.4,83,30.06,10.0,SE,12.7,18.4,N/A,Thunderstorm,Thunderstorm,140,2013-05-20 15:25:00
11:53 AM,78.1,75.0,90,30.09,3.0,ESE,5.8,-,0.10,Rain-Thunderstorm,Light Thunderstorms and Rain,110,2013-05-20 15:53:00
12:00 PM,78.8,73.4,83,30.08,9.0,ESE,8.1,-,0.01,Rain-Thunderstorm,Light Thunderstorms and Rain,110,2013-05-20 16:00:00
12:16 PM,77.0,73.4,89,30.06,5.0,ESE,9.2,-,0.03,Rain,Light Rain,110,2013-05-20 16:16:00
12:53 PM,79.0,73.9,84,30.06,10.0,ESE,10.4,-,0.03,Rain,Light Rain,110,2013-05-20 16:53:00
1:32 PM,78.8,73.4,83,30.06,8.0,SE,11.5,-,0.01,Rain,Light Rain,140,2013-05-20 17:32:00
1:47 PM,73.4,71.6,94,30.07,1.8,SE,13.8,-,0.10,Rain,Heavy Rain,130,2013-05-20 17:47:00
1:53 PM,73.0,70.0,90,30.08,1.5,SE,8.1,-,0.16,Rain,Heavy Rain,130,2013-05-20 17:53:00
2:10 PM,73.4,73.4,100,30.07,2.0,Calm,Calm,-,0.22,Rain-Thunderstorm,Heavy Thunderstorms and Rain,0,2013-05-20 18:10:00
2:25 PM,73.4,73.4,100,30.07,3.0,NNW,4.6,-,0.27,Rain-Thunderstorm,Thunderstorms and Rain,340,2013-05-20 18:25:00
2:53 PM,72.0,70.0,93,30.06,4.0,South,8.1,19.6,0.36,Rain-Thunderstorm,Thunderstorms and Rain,170,2013-05-20 18:53:00
3:22 PM,73.4,71.6,94,30.05,9.0,Calm,Calm,-,0.02,Rain,Light Rain,0,2013-05-20 19:22:00
3:53 PM,75.9,73.0,91,30.06,10.0,East,5.8,-,0.02,Thunderstorm,Mostly Cloudy,80,2013-05-20 19:53:00
4:23 PM,77.0,71.6,83,30.04,10.0,East,5.8,-,N/A,,Mostly Cloudy,100,2013-05-20 20:23:00
5:53 PM,77.0,73.0,88,30.01,10.0,North,4.6,-,0.00,,Scattered Clouds,10,2013-05-20 21:53:00
6:53 PM,77.0,73.9,90,29.99,10.0,NE,3.5,-,0.00,,Partly Cloudy,50,2013-05-20 22:53:00
7:12 PM,77.0,75.2,94,29.98,10.0,East,3.5,-,N/A,,Mostly Cloudy,80,2013-05-20 23:12:00
7:53 PM,79.0,73.0,82,30.01,10.0,East,8.1,-,N/A,,Overcast,90,2013-05-20 23:53:00
8:25 PM,78.8,73.4,83,30.02,10.0,East,13.8,-,N/A,Thunderstorm,Thunderstorm,80,2013-05-21 00:25:00
8:53 PM,79.0,73.0,82,30.03,10.0,East,13.8,-,N/A,Thunderstorm,Mostly Cloudy,90,2013-05-21 00:53:00
9:23 PM,75.2,71.6,89,30.06,9.0,SW,10.4,17.3,0.01,Rain-Thunderstorm,Light Thunderstorms and Rain,230,2013-05-21 01:23:00
10:53 PM,72.0,71.1,97,30.06,7.0,Calm,Calm,-,0.08,Rain-Thunderstorm,Light Thunderstorms and Rain,0,2013-05-21 02:53:00
11:10 PM,71.6,71.6,100,30.05,10.0,Calm,Calm,-,0.00,Rain,Light Rain,0,2013-05-21 03:10:00
11:23 PM,73.4,71.6,94,30.06,10.0,SSE,9.2,-,0.00,Rain-Thunderstorm,Light Rain,150,2013-05-21 03:23:00
11:41 PM,75.2,71.6,89,30.06,10.0,SSE,8.1,-,0.00,,Mostly Cloudy,160,2013-05-21 03:41:00
11:53 PM,73.9,72.0,93,30.06,10.0,South,4.6,-,0.00,,Mostly Cloudy,170,2013-05-21 03:53:00